Simultaneous Nadir Overpasses (SNOs) Predictions

Prediction of SNOs between NPP and TERRA Satellite Orbit:

Table of predicted SNOs for the next 14.0 days since TLE Epoch: 8/16/2014
Index Date (NPP) Time (NPP) Lat,Lon (NPP) SZA (NPP ) Date (TERRA) Time (TERRA) Lat,Lon (TERRA) SZA (TERRA ) Distance(km) Time Diff (sec)
1 08/17/2014 05:42:45 69.15, 93.75 55.61 08/17/2014 05:43:50 69.16, 93.77 55.62 2.08 65
2 08/17/2014 06:33:26 -69.02, -98.75 124.51 08/17/2014 06:33:21 -69.00, -98.81 124.54 3.30 5
3 08/17/2014 07:24:04 68.56, 69.18 55.04 08/17/2014 07:22:53 68.61, 68.35 55.10 34.03 71
4 08/19/2014 21:59:45 69.12,-150.45 56.45 08/19/2014 22:00:22 69.09,-150.45 56.42 3.22 37
5 08/19/2014 22:50:26 -68.99, 17.05 123.68 08/19/2014 22:49:52 -68.98, 17.04 123.68 0.63 34
6 08/22/2014 13:26:09 -69.65, 157.24 122.13 08/22/2014 13:27:19 -69.56, 158.39 122.24 46.08 70
7 08/22/2014 14:16:44 69.04, -34.58 57.26 08/22/2014 14:16:53 69.06, -34.61 57.28 2.62 9
8 08/22/2014 15:07:26 -68.96, 132.85 122.81 08/22/2014 15:06:23 -68.96, 132.89 122.82 1.58 63
9 08/25/2014 05:42:59 -69.15, -86.28 121.73 08/25/2014 05:43:56 -69.14, -86.29 121.75 1.71 57
10 08/25/2014 06:33:43 69.02, 81.21 58.15 08/25/2014 06:33:23 69.02, 81.21 58.15 0.45 20
11 08/25/2014 07:24:13 -68.30,-110.50 122.57 08/25/2014 07:23:03 -68.37,-111.97 122.49 60.79 70
12 08/27/2014 21:09:35 70.17,-139.34 60.23 08/27/2014 21:10:41 70.08,-136.78 60.11 97.62 66
13 08/27/2014 21:59:58 -69.08, 29.58
